GFSNGP_925_temp_186.txt.gz
Temp
12 13 13 13 13 13 12 12 10 12 13 14 15 15 16 15 15 15 15 15 15 15 14 13 12 12 12 9 6 6 5 4 4 3 3 2 2 2 2 2 1 1 0 0
9 11 12 11 12 12 13 13 13 13 13 16 16 15 14 14 13 13 14 14 14 13 14 13 12 11 11 10 5 4 4 3 3 3 3 3 2 2 1 1 0 0 0 -0
9 12 11 9 11 13 13 14 13 12 14 14 13 13 12 12 12 13 12 11 11 12 13 13 12 10 11 10 5 4 3 3 3 2 1 1 1 0 0 0 -0 -0 -0 -1
9 9 7 12 13 12 12 12 13 13 13 12 11 12 12 13 12 12 12 10 9 9 10 11 11 11 9 8 5 3 2 2 2 1 1 0 0 -0 -0 -0 -0 -1 -1 -1
8 9 11 12 12 12 11 11 12 12 12 12 13 13 12 13 12 11 9 7 6 6 9 10 10 9 7 7 5 4 2 1 1 1 1 0 -0 -0 -0 -1 -1 -1 -1 -1
8 7 8 12 12 12 11 9 13 12 12 12 12 10 11 11 10 8 8 6 5 7 8 10 10 8 5 5 6 4 3 2 1 1 0 -0 -0 0 -0 -1 -1 -1 -2 -2
8 8 10 12 13 11 8 10 12 12 12 11 10 11 11 10 7 9 7 6 5 6 8 7 6 4 4 4 4 4 3 2 1 1 0 -0 -1 -1 -1 -1 -2 -2 -2 -2
7 7 7 12 11 9 12 12 12 12 12 10 10 9 9 9 8 8 6 8 4 4 3 2 2 2 2 3 3 2 2 1 0 0 -0 -1 -1 -1 -1 -2 -1 -2 -2 -2
8 9 11 11 12 13 12 12 12 12 11 11 10 10 10 9 9 7 8 9 5 3 2 2 2 1 1 1 1 1 1 0 -0 -1 -1 -1 -1 -2 -2 -2 -1 -1 -1 -2
9 11 11 12 12 12 12 12 12 12 11 10 10 10 9 9 9 9 10 8 5 4 3 2 1 0 0 0 -0 -0 -0 -0 -1 -1 -1 -2 -2 -2 -2 -2 -1 -1 -1 -2
9 10 11 12 12 12 12 12 11 11 11 11 10 10 9 10 9 10 9 6 4 3 2 0 -0 -0 -0 -1 -1 -0 -1 -1 -1 -1 -1 -2 -1 -1 -1 -1 -1 -1 -1 -2
9 11 11 11 11 11 10 10 10 10 10 11 10 9 10 9 8 9 7 4 3 2 1 1 -0 -1 -1 -1 -0 -0 -1 -1 -1 -1 -1 -2 -2 -2 -2 -1 -1 -1 -2 -2
10 10 10 10 10 10 10 10 10 9 10 9 9 8 6 6 7 6 5 4 3 1 0 -0 -1 -1 -1 -1 -1 -1 -1 -1 -1 -1 -1 -1 -1 -1 -2 -3 -2 -2 -2 -3
10 9 8 9 9 9 8 8 8 9 9 9 5 4 5 6 7 6 4 4 2 1 -0 -1 -1 -2 -1 -1 -1 -1 -1 -1 -1 -2 -2 -2 -1 -1 -1 -2 -2 -3 -4 -4
7 6 6 7 7 7 8 9 8 8 9 5 1 0 3 3 5 6 3 3 2 1 -0 -1 -1 -2 -2 -1 -1 -2 -2 -2 -2 -2 -2 -2 -2 -1 -1 -2 -2 -3 -4 -5
5 5 6 6 7 8 8 8 7 6 3 3 3 3 3 2 4 5 4 4 4 1 0 -1 -2 -2 -2 -2 -2 -2 -2 -2 -2 -2 -2 -2 -1 -1 -2 -2 -2 -3 -3 -4
5 7 6 6 7 7 5 4 2 2 2 2 2 2 1 1 4 3 2 2 0 -1 -0 -1 -2 -2 -2 -2 -1 -1 -1 -2 -2 -2 -1 -2 -1 -1 -1 -2 -2 -3 -3 -4
3 2 2 3 4 4 2 1 1 1 1 0 -0 -0 -0 0 1 0 -0 0 -1 -1 -1 -1 -2 -2 -2 -2 -2 -1 -1 -2 -2 -2 -2 -2 -2 -2 -2 -3 -3 -3 -4 -5
1 1 2 1 1 1 1 1 0 -0 -1 -1 -0 -0 -1 -1 -1 -1 -1 -0 0 0 -2 -2 -2 -2 -3 -3 -3 -2 -2 -2 -2 -2 -3 -3 -3 -3 -3 -3 -3 -4 -4 -5
1 0 -0 -0 -1 -0 -0 -1 -1 -1 -1 -1 -1 -1 -1 -1 -1 -1 -1 -1 -2 -2 -2 -3 -2 -3 -3 -3 -2 -2 -2 -2 -2 -3 -3 -3 -3 -3 -3 -3 -3 -4 -4 -4
1 -0 -0 -0 -1 -1 -1 -1 -1 -1 -2 -2 -1 -1 -1 -2 -2 -2 -1 0 -3 -2 -2 -2 -2 -2 -2 -3 -3 -3 -3 -3 -3 -3 -3 -3 -3 -3 -3 -4 -4 -4 -4 -4
0 -0 -1 -1 -1 -1 -2 -2 -2 -2 -2 -2 -2 -2 -1 -1 -1 -2 -3 -2 -2 -2 -2 -2 -2 -2 -3 -3 -3 -3 -3 -3 -3 -3 -3 -3 -3 -3 -3 -4 -4 -4 -4 -4
-0 -0 -1 -1 -1 -2 -2 -2 -2 -2 -2 -3 -3 -3 -2 -2 -2 -1 -0 -3 -2 -2 -2 -3 -3 -3 -3 -3 -3 -3 -3 -3 -3 -3 -3 -3 -3 -4 -4 -4 -4 -4 -5 -5
-0 -0 -1 -1 -2 -1 -0 -2 -2 -2 -3 -3 -3 -4 -3 -1 -2 -3 -3 -3 -3 -2 -3 -3 -3 -3 -3 -3 -3 -3 -3 -3 -3 -4 -4 -4 -4 -4 -4 -4 -4 -5 -5 -5
0 -0 -0 -0 1 1 -0 -1 -1 -1 -1 -1 -2 -3 -3 -3 -3 -3 -3 -3 -3 -3 -3 -3 -3 -3 -3 -3 -3 -4 -4 -4 -4 -4 -4 -4 -5 -5 -5 -5 -5 -5 -6 -6
1 1 1 1 2 2 1 0 0 -1 -0 -1 -2 -3 -3 -3 -3 -3 -4 -3 -3 -3 -4 -4 -4 -4 -4 -4 -5 -5 -5 -5 -5 -5 -5 -5 -5 -5 -6 -6 -6 -6 -6 -6
2 1 2 2 1 1 1 0 -0 -1 -2 -2 -2 -3 -3 -3 -4 -4 -4 -4 -4 -4 -4 -5 -5 -5 -5 -5 -6 -6 -6 -6 -6 -6 -6 -6 -6 -6 -6 -7 -7 -7 -7 -7

GFSNGP_925_temp_189.txt.gz
Temp
14 15 15 15 15 15 14 12 12 14 14 16 17 17 18 18 17 17 17 16 16 16 16 14 13 14 14 14 12 11 7 6 5 4 3 3 3 3 3 2 2 2 1 1
10 13 14 13 15 15 15 15 15 16 15 17 18 18 17 16 16 15 16 16 15 15 14 13 11 12 12 13 12 9 5 4 4 3 3 3 3 3 2 2 2 1 1 0
11 13 13 12 14 15 15 15 15 15 16 17 16 16 15 15 15 15 14 14 14 13 11 9 8 9 9 11 11 6 5 3 3 3 3 3 3 3 2 1 0 0 0 -0
11 12 9 14 16 16 15 16 16 16 16 16 16 15 15 15 15 14 14 13 12 10 7 8 7 7 9 10 10 6 4 2 3 3 2 1 0 -0 -0 -0 -1 -1 -0 -0
10 11 13 14 15 14 13 14 15 15 15 15 15 15 15 15 15 14 13 12 10 9 7 6 6 8 9 9 9 7 4 2 2 1 0 -0 -1 -1 -1 -1 -1 -1 -1 -1
11 10 11 14 15 15 14 11 15 15 14 14 14 12 13 14 13 12 12 11 10 8 8 6 5 6 6 6 6 6 4 2 1 1 0 -1 -1 -1 -1 -1 -1 -1 -1 -1
10 11 12 14 15 14 9 12 14 14 14 13 13 13 13 12 12 13 12 11 10 9 7 4 3 3 2 3 3 3 4 2 1 1 -0 -0 -1 -1 -1 -1 -1 -1 -1 -1
10 10 9 15 14 12 13 14 14 14 14 13 13 12 12 12 12 13 12 12 10 6 4 3 2 2 1 2 2 2 3 2 1 0 -0 -1 -1 -1 -1 -1 -1 -1 -2 -2
11 11 13 13 13 14 14 13 14 14 14 13 13 12 12 12 12 13 13 11 11 7 3 2 2 1 1 1 0 1 1 1 0 -0 -1 -1 -1 -1 -1 -1 -1 -1 -1 -1
11 12 13 14 14 14 14 14 14 14 14 13 13 13 12 12 12 12 12 11 9 7 3 2 1 -0 -1 -1 -1 -0 -0 -1 -1 -1 -1 -1 -1 -1 -1 -1 -1 -1 -0 -1
11 12 13 13 14 14 14 14 14 14 13 13 13 12 12 12 12 12 10 10 8 6 2 1 0 -0 -1 -1 -1 -1 -1 -1 -1 -1 -1 -1 -1 -1 -1 -1 -1 -0 -0 -1
11 13 13 13 13 13 13 13 13 12 12 12 12 12 12 12 11 8 9 9 8 5 1 0 -0 -1 -1 -1 -1 -1 -1 -1 -1 -1 -1 -1 -1 -1 -1 -1 -1 -1 -1 -1
12 13 12 12 12 12 12 12 12 12 11 11 12 12 11 10 7 6 9 8 7 4 1 -1 -1 -1 -1 -1 -0 -1 -1 -1 -1 -1 -1 -1 -1 -2 -2 -2 -1 -1 -1 -1
12 11 10 11 10 11 11 11 10 10 10 10 10 10 8 4 5 8 8 7 6 5 3 -0 -1 -1 -1 -1 -1 -1 -1 -1 -1 -1 -1 -1 -1 -1 -2 -2 -2 -3 -2 -2
10 10 9 9 9 9 9 10 9 9 10 10 6 4 2 2 3 5 6 6 6 4 3 2 1 -1 -1 -1 -1 -1 -1 -1 -1 -1 -1 -1 -1 -1 -1 -1 -2 -2 -3 -3
8 8 8 8 8 9 9 10 10 9 7 7 5 4 3 4 3 5 6 5 4 2 2 -0 -0 -1 -1 -1 -0 -1 -1 -1 -1 -1 -1 -1 -1 -1 -1 -1 -2 -2 -3 -3
5 7 8 7 7 8 7 7 5 4 4 3 3 3 2 2 2 4 3 3 1 -0 -0 -1 -1 -1 -2 -1 -0 -0 -1 -1 -1 -0 -1 -1 -1 -1 -1 -1 -1 -2 -3 -3
3 3 4 4 3 5 5 2 2 2 1 0 0 -0 -0 -0 1 1 0 0 -0 -1 -1 -2 -1 -2 -2 -1 -1 -1 -1 -1 -1 -1 -1 -1 -1 -1 -1 -1 -1 -2 -3 -4
3 2 3 2 2 1 1 1 0 -0 -1 -0 -0 -0 -1 -1 -1 -1 -0 0 0 1 -2 -2 -2 -1 -1 -2 -1 -1 -1 -1 -1 -2 -2 -2 -2 -1 -2 -2 -2 -3 -4 -4
2 1 0 1 0 0 0 -1 -1 -1 -1 -1 -0 -0 -0 -1 -1 -1 -1 -1 -2 -2 -2 -2 -2 -2 -2 -2 -1 -1 -2 -2 -2 -2 -2 -2 -2 -2 -2 -2 -3 -3 -4 -4
2 1 0 0 -0 -1 -1 -1 -1 -1 -1 -1 -1 -1 -1 -1 -1 -1 1 1 -2 -2 -2 -1 -1 -1 -2 -1 -2 -2 -2 -2 -2 -2 -2 -2 -2 -2 -3 -3 -3 -3 -3 -3
1 0 -0 -0 -0 -1 -2 -1 -1 -1 -1 -1 -1 -1 -1 -1 -0 -1 -2 -1 -1 -2 -1 -1 -1 -2 -2 -2 -2 -2 -2 -2 -2 -2 -2 -2 -3 -3 -3 -3 -3 -3 -3 -3
1 1 -0 -0 -0 -1 -2 -2 -2 -2 -2 -2 -3 -2 -1 -1 -1 -1 0 -2 -2 -2 -2 -2 -3 -3 -2 -2 -2 -2 -2 -2 -3 -3 -3 -3 -3 -3 -3 -3 -3 -4 -4 -4
1 1 0 -1 -1 0 1 0 -0 -1 -1 -2 -3 -3 -2 -1 -2 -2 -2 -3 -2 -2 -3 -3 -3 -3 -3 -3 -3 -3 -3 -3 -3 -3 -3 -3 -3 -3 -4 -4 -4 -4 -4 -4
1 1 1 1 1 2 2 1 0 0 1 -0 -1 -2 -3 -3 -2 -3 -2 -2 -3 -3 -3 -3 -3 -3 -3 -3 -3 -3 -3 -3 -3 -4 -4 -4 -4 -4 -4 -4 -4 -4 -5 -5
3 3 3 2 2 3 2 1 1 1 1 -0 -1 -2 -3 -3 -3 -3 -3 -3 -3 -3 -3 -3 -3 -3 -4 -4 -4 -4 -4 -5 -5 -5 -5 -5 -5 -5 -5 -5 -5 -6 -6 -6
3 2 3 3 3 3 2 1 0 -0 -1 -1 -2 -2 -3 -3 -3 -3 -3 -3 -3 -3 -4 -4 -4 -5 -5 -5 -5 -5 -6 -6 -6 -6 -6 -6 -6 -6 -6 -6 -7 -7 -7 -7

GFSNGP_925_temp_192.txt.gz
Temp
9 13 15 16 16 16 14 13 13 15 15 16 17 17 18 18 18 17 16 16 16 15 15 14 13 11 10 9 9 9 9 8 6 6 5 4 4 4 4 3 3 3 2 2
9 13 14 14 16 17 16 16 15 15 15 17 18 19 18 17 16 16 16 16 15 15 14 13 12 10 9 8 8 8 8 9 6 5 4 4 3 3 3 2 2 2 1 1
9 11 13 12 14 15 16 17 16 15 16 18 17 17 16 16 15 15 15 15 14 14 12 11 10 9 8 7 7 8 9 8 5 4 3 3 3 2 2 2 1 1 0 -0
11 12 9 14 17 17 16 16 17 16 17 17 16 16 16 15 15 14 14 13 13 13 12 11 10 8 7 5 6 8 7 6 4 3 2 2 1 1 1 1 0 -0 -0 -0
10 11 13 15 15 15 14 14 16 16 16 16 16 15 15 16 14 13 13 12 12 12 12 10 10 7 4 4 4 5 5 5 4 2 1 0 -0 -0 -1 -1 -1 -1 -1 -1
11 11 12 14 15 15 15 12 15 15 15 15 14 12 13 14 13 12 12 12 12 12 10 10 7 5 3 3 2 3 3 2 3 2 0 -0 -1 -1 -1 -1 -1 -1 -1 -1
11 11 13 16 16 15 11 12 15 15 15 14 13 13 13 13 13 13 13 12 12 10 8 6 4 3 2 2 1 1 1 1 2 2 0 -0 -1 -1 -1 -1 -2 -2 -2 -2
10 10 10 16 15 13 14 15 15 14 14 13 13 13 13 13 13 13 13 13 12 7 6 4 3 2 1 0 -0 -0 -0 1 2 1 -0 -1 -1 -1 -1 -1 -1 -2 -2 -2
11 11 14 14 14 15 14 14 14 14 14 14 13 13 13 13 13 13 13 13 12 9 6 4 2 1 -0 -1 -1 -1 -0 0 0 -0 -1 -1 -1 -1 -1 -1 -1 -1 -2 -2
12 13 14 15 15 15 15 14 15 15 15 14 13 13 13 13 13 13 13 12 9 9 6 3 1 -0 -1 -1 -1 -1 -1 -1 -1 -1 -1 -1 -1 -1 -1 -1 -1 -1 -1 -2
12 13 14 14 14 14 14 15 14 14 14 14 13 13 13 13 13 13 12 9 7 8 5 2 -0 -1 -1 -1 -1 -1 -1 -1 -1 -1 -1 -1 -1 -1 -1 -1 -1 -1 -1 -2
11 13 13 13 14 14 13 13 13 13 13 13 13 13 12 12 12 10 7 7 8 7 4 1 -1 -1 -1 -1 -1 -1 -1 -1 -1 -1 -1 -1 -1 -2 -1 -1 -1 -0 -1 -1
13 13 13 13 13 13 12 12 12 12 12 12 11 11 11 11 9 6 7 7 8 7 4 1 -1 -1 -1 -1 -1 -1 -1 -1 -1 -1 -1 -1 -1 -2 -2 -1 -1 -1 -1 -1
13 13 11 12 11 10 10 10 11 11 11 10 10 11 10 6 5 5 5 6 8 6 4 3 1 -1 -1 -1 -1 -1 -1 -1 -1 -1 -1 -1 -1 -2 -2 -2 -2 -2 -1 -1
12 11 11 10 10 10 11 11 10 10 10 10 8 5 4 3 2 3 3 6 6 5 3 1 -0 -1 -1 -0 -1 -1 -1 -2 -1 -1 -1 -1 -1 -2 -2 -2 -2 -2 -2 -2
9 9 9 10 10 9 9 9 9 7 6 5 5 5 4 3 2 3 4 4 3 2 1 -0 -1 -2 -1 -0 -1 -1 -1 -1 -1 -1 -1 -1 -1 -1 -1 -2 -2 -3 -3 -3
6 7 8 7 7 7 7 5 2 2 2 2 3 2 1 0 1 2 2 2 0 -0 -0 -1 -1 -2 -2 -1 -0 -1 -1 -1 -1 -1 -1 -1 -1 -1 -1 -2 -2 -2 -3 -4
4 4 5 4 5 4 4 3 2 1 1 0 -0 -0 -0 -0 -0 -0 -0 0 -0 -1 -1 -1 -2 -1 -2 -1 -1 -1 -1 -1 -1 -1 -1 -1 -1 -1 -1 -2 -2 -3 -3 -4
3 3 3 2 2 2 1 1 0 -0 -1 -1 -0 -0 -1 -1 -1 -1 -0 -0 0 -0 -2 -2 -1 -1 -1 -1 -1 -1 -1 -1 -1 -1 -1 -1 -1 -1 -2 -2 -3 -3 -4 -4
2 2 2 1 1 1 0 -1 -0 -1 -1 -1 -1 -0 -0 -1 -1 -1 -1 -1 -2 -2 -2 -1 -2 -2 -2 -1 -1 -1 -1 -2 -1 -1 -1 -2 -2 -2 -2 -2 -3 -3 -4 -3
3 1 1 0 -0 -1 -1 -1 -1 -1 -1 -1 -1 -1 -1 -1 -1 -1 -0 -0 -2 -2 -1 -1 -1 -1 -2 -2 -2 -2 -2 -2 -2 -2 -2 -2 -2 -2 -3 -3 -3 -3 -3 -3
2 0 -0 -0 -0 -1 -1 -1 -1 -1 -1 -2 -2 -1 -1 -1 -1 -1 -1 -1 -1 -1 -1 -2 -2 -2 -2 -2 -2 -2 -2 -2 -2 -2 -2 -3 -3 -3 -3 -3 -3 -3 -3 -3
1 1 0 -0 0 -1 -1 -2 -2 -2 -2 -2 -2 -2 -1 -2 -2 -1 -1 -2 -2 -2 -2 -3 -3 -2 -2 -2 -2 -2 -2 -2 -2 -2 -3 -3 -3 -3 -3 -3 -3 -3 -4 -4
1 1 1 0 -1 -1 0 -0 -0 0 -0 -2 -2 -2 -2 -2 -2 -2 -2 -2 -2 -3 -3 -3 -3 -3 -3 -3 -3 -3 -3 -3 -3 -3 -3 -3 -3 -3 -4 -4 -4 -4 -4 -4
2 1 0 0 1 2 1 1 1 0 1 -1 -2 -2 -2 -2 -2 -2 -2 -2 -3 -3 -3 -3 -3 -3 -3 -3 -3 -3 -3 -3 -3 -4 -4 -4 -4 -4 -4 -4 -4 -5 -5 -5
2 2 2 2 2 2 2 1 1 1 0 -1 -2 -2 -3 -2 -2 -2 -3 -3 -3 -3 -3 -3 -3 -4 -4 -4 -4 -4 -4 -4 -4 -4 -4 -4 -4 -5 -5 -5 -5 -5 -5 -6
3 3 2 2 2 2 1 1 1 0 -1 -1 -2 -2 -3 -3 -3 -3 -3 -3 -3 -3 -4 -4 -4 -5 -5 -5 -5 -5 -5 -5 -5 -5 -5 -5 -6 -6 -6 -6 -6 -7 -7 -7

GFSNGP_925_temp_198.txt.gz
Temp
13 14 16 18 17 17 17 18 16 17 15 15 14 15 15 12 12 12 11 11 10 10 9 10 10 11 11 10 9 7 6 4 4 3 4 4 4 4 3 3 3 3 2 2
12 11 12 15 17 16 17 17 18 15 14 16 15 14 13 13 12 11 10 10 10 10 9 9 10 10 9 8 7 5 4 4 4 3 2 3 2 2 2 2 2 1 1 1
11 9 10 11 13 15 16 15 15 14 14 15 14 13 12 11 11 10 10 10 10 9 9 9 9 8 7 6 5 4 3 2 2 2 2 1 1 1 1 1 1 0 1 0
9 9 11 14 14 14 15 14 15 15 15 14 14 11 10 9 9 9 9 10 9 8 9 9 7 7 5 4 3 3 2 1 1 1 0 0 0 1 1 0 -0 -0 -0 -0
9 10 10 12 12 12 12 13 14 15 14 13 11 10 10 9 9 9 9 9 9 10 9 8 6 5 4 2 2 1 1 0 -0 -1 -1 -0 0 0 -1 -1 -1 -1 -1 -1
8 9 10 11 14 14 14 10 14 14 13 12 10 8 7 9 9 9 8 9 10 9 8 6 5 3 2 1 0 0 -1 -1 -1 -1 -1 -0 0 -1 -1 -1 -2 -2 -2 -1
8 9 9 12 14 14 11 10 13 13 12 11 10 9 9 9 10 11 10 11 9 8 7 5 3 2 0 -0 -0 -1 -1 -2 -1 -1 -1 -1 -1 -1 -1 -2 -2 -2 -2 -2
8 8 9 13 14 13 12 11 11 11 11 10 9 9 9 9 10 10 10 9 7 7 5 3 2 -0 -1 -1 -1 -2 -2 -2 -2 -2 -1 -1 -2 -2 -2 -2 -2 -2 -2 -2
9 9 10 12 11 11 11 10 11 11 10 10 10 10 11 9 9 9 9 6 7 6 3 2 1 -1 -1 -1 -2 -1 -2 -1 -2 -2 -2 -2 -2 -2 -2 -2 -2 -2 -2 -3
8 9 10 11 11 11 11 11 11 10 11 10 11 10 10 9 8 7 5 6 6 4 2 1 -0 -1 -1 -1 -2 -1 -2 -1 -2 -2 -2 -2 -2 -1 -1 -2 -2 -2 -3 -3
8 11 11 11 11 11 10 10 10 10 10 9 9 10 9 8 6 5 5 5 5 4 2 1 1 0 -0 -1 -1 -1 -1 -1 -2 -2 -2 -2 -1 -1 -1 -1 -2 -2 -3 -2
8 10 9 9 9 9 8 8 8 8 8 8 7 8 8 6 5 4 5 5 4 3 2 1 1 0 0 0 -1 -2 -1 -1 -2 -1 -2 -2 -2 -2 -1 -1 -1 -2 -2 -2
9 10 9 8 8 8 7 7 8 8 8 9 8 7 7 3 3 4 4 5 4 3 2 1 0 -0 -0 -0 -1 -2 -2 -2 -1 -2 -1 -2 -2 -2 -2 -2 -2 -2 -2 -2
9 9 7 8 6 7 7 7 7 5 4 4 3 3 2 2 2 2 3 4 4 2 1 1 -0 -1 -1 -1 -1 -2 -2 -2 -2 -1 -2 -2 -2 -2 -2 -2 -2 -3 -2 -2
8 8 7 6 6 6 5 5 4 4 3 3 2 1 2 1 2 2 3 4 3 1 0 0 -1 -1 -1 -1 -1 -1 -2 -2 -2 -1 -2 -2 -2 -2 -2 -2 -2 -3 -3 -3
7 7 6 6 5 5 4 3 2 2 1 1 1 1 1 1 2 2 3 3 2 1 -0 -1 -1 -1 -1 -1 -1 -1 -1 -1 -2 -1 -2 -2 -2 -2 -3 -3 -3 -3 -3 -3
5 5 4 4 3 3 2 2 2 3 2 2 1 0 0 0 0 0 1 1 0 -1 -1 -1 -1 -1 -1 -1 -1 -1 -1 -1 -1 -2 -2 -2 -3 -3 -3 -3 -4 -4 -4 -3
3 2 3 3 2 2 1 0 1 1 0 -0 -1 -1 -1 -1 -0 -0 -0 -0 -1 -2 -1 -1 -1 -1 -1 -1 -1 -1 -1 -1 -1 -1 -2 -2 -3 -4 -4 -4 -4 -5 -5 -4
1 1 1 1 1 0 -0 -1 -0 -1 -1 -1 -2 -2 -1 -1 -1 -1 -1 -1 -1 -2 -2 -2 -2 -1 -1 -1 -1 -1 -1 -1 -1 -1 -2 -2 -3 -3 -4 -5 -5 -5 -5 -5
-0 -1 -1 0 0 0 -1 -1 -2 -2 -2 -1 -1 -1 -2 -2 -1 -1 -1 -2 -1 -1 -1 -2 -2 -1 -1 -2 -2 -2 -2 -2 -2 -2 -2 -3 -3 -4 -4 -5 -5 -5 -5 -5
1 -0 -1 -1 -1 -1 -1 -1 -1 -2 -2 -1 -1 -1 -1 -2 -1 -1 -1 -2 -2 -2 -2 -1 -2 -2 -2 -2 -2 -2 -2 -2 -2 -2 -3 -3 -3 -4 -4 -4 -4 -4 -4 -5
0 -1 -1 -2 -2 -2 -2 -1 -1 -2 -2 -2 -2 -1 -1 -2 -2 -2 -1 -1 -2 -2 -2 -2 -1 -2 -2 -2 -3 -3 -3 -3 -3 -2 -3 -3 -3 -3 -4 -4 -4 -4 -4 -4
-0 -1 -1 -2 -2 -2 -2 -2 -2 -2 -2 -2 -2 -2 -2 -2 -2 -2 -2 -2 -2 -3 -2 -2 -2 -3 -3 -3 -3 -3 -3 -3 -3 -3 -3 -3 -3 -3 -3 -4 -4 -4 -4 -4
-0 -1 -1 -1 -2 -2 -2 -2 -2 -2 -2 -3 -3 -2 -2 -2 -2 -2 -2 -3 -3 -3 -3 -3 -3 -3 -3 -3 -3 -4 -3 -3 -3 -3 -3 -3 -3 -4 -4 -4 -4 -4 -4 -5
0 -1 -1 -1 -1 -2 -1 -1 -2 -2 -2 -3 -3 -2 -2 -2 -2 -3 -3 -3 -3 -3 -3 -3 -3 -3 -3 -4 -4 -3 -3 -3 -3 -3 -3 -4 -4 -4 -4 -4 -5 -5 -5 -5
-0 -1 -2 -1 -1 -1 -1 -1 -1 -2 -2 -3 -3 -2 -3 -2 -3 -3 -3 -3 -3 -3 -4 -4 -4 -4 -4 -4 -4 -4 -4 -4 -4 -4 -4 -4 -4 -5 -5 -5 -5 -5 -6 -6
0 -1 -1 -1 -1 -0 -0 -0 -1 -1 -2 -2 -3 -2 -2 -3 -3 -3 -3 -3 -3 -4 -4 -4 -4 -4 -4 -4 -4 -4 -4 -4 -4 -4 -5 -5 -5 -5 -5 -6 -6 -6 -6 -6

GFSNGP_925_temp_201.txt.gz
Temp
17 15 17 19 18 18 17 18 17 19 16 14 14 15 14 13 11 11 9 9 9 9 9 9 10 10 10 9 8 7 6 5 4 3 2 2 2 2 2 2 2 2 2 2
15 13 13 15 17 18 18 18 19 18 16 16 15 14 12 11 11 11 10 10 10 10 9 9 9 9 8 7 6 6 5 3 2 2 1 1 0 0 0 1 1 1 0 0
15 12 11 12 13 17 18 19 19 18 17 15 13 13 12 12 12 11 10 9 9 9 8 9 9 7 6 6 5 4 2 2 2 1 -0 -1 -1 -0 -0 -0 -0 -1 -1 -1
10 11 13 14 15 16 17 18 18 16 16 13 12 12 13 12 11 10 9 9 8 7 8 8 7 6 5 5 4 2 1 1 0 -1 -1 -1 -1 -1 -0 -1 -1 -2 -1 -1
10 11 13 13 12 14 15 16 16 15 14 12 12 11 9 9 10 9 8 7 8 9 9 7 6 5 4 4 1 1 0 -1 -1 -2 -2 -1 -1 -1 -1 -1 -2 -2 -2 -2
9 11 12 13 12 13 14 14 13 14 13 12 11 10 8 8 8 8 7 9 8 9 7 6 4 4 3 0 -0 -0 -1 -2 -2 -2 -2 -2 -2 -2 -1 -2 -2 -2 -2 -2
8 10 10 10 12 14 12 13 14 14 13 11 11 11 9 8 7 7 7 8 9 7 6 5 4 2 -1 -0 -0 -1 -2 -2 -2 -2 -2 -2 -2 -2 -2 -2 -2 -2 -2 -2
8 9 11 11 12 12 11 11 11 12 10 10 8 7 9 8 7 7 7 6 7 5 4 3 2 -1 -1 -1 -1 -2 -2 -2 -2 -2 -2 -1 -2 -2 -2 -2 -2 -2 -2 -2
11 11 10 11 12 11 11 10 10 10 9 9 8 8 8 7 7 7 6 6 5 4 1 2 0 -1 -1 -1 -1 -2 -2 -2 -2 -1 -2 -2 -2 -2 -2 -2 -2 -2 -2 -3
9 9 10 11 11 11 11 10 10 10 9 9 8 7 7 6 6 5 5 5 5 3 1 0 -0 -1 -1 -1 -1 -2 -2 -2 -2 -2 -2 -2 -2 -1 -1 -2 -2 -2 -2 -3
7 9 9 10 11 10 9 9 9 9 9 8 7 7 7 6 6 5 4 5 5 3 2 1 0 0 -0 -0 -1 -2 -2 -2 -2 -2 -2 -2 -2 -2 -1 -1 -2 -2 -2 -2
8 9 9 10 9 9 9 9 8 8 7 8 7 7 6 5 4 4 4 4 3 2 2 1 -0 -0 -0 -1 -2 -2 -2 -2 -2 -2 -2 -2 -2 -2 -2 -2 -2 -2 -2 -2
8 9 9 8 8 8 8 8 7 7 7 7 7 6 5 3 3 4 4 4 2 2 2 0 -0 -0 -1 -1 -1 -2 -2 -2 -2 -2 -2 -2 -1 -2 -2 -2 -2 -2 -2 -2
9 8 7 8 7 7 7 6 6 4 5 5 4 4 3 2 2 2 3 4 3 2 1 -0 -0 -1 -1 -1 -0 -1 -2 -2 -2 -2 -2 -2 -2 -2 -2 -2 -3 -3 -3 -3
9 10 8 6 6 5 5 5 4 3 2 2 1 1 1 1 1 2 3 3 3 2 0 -0 -1 -1 -1 -1 -0 -1 -1 -2 -2 -2 -2 -2 -2 -2 -2 -3 -3 -3 -3 -3
7 6 6 6 5 5 5 4 3 2 1 1 0 0 0 1 1 2 3 3 1 1 -0 -1 -1 -1 -1 -0 -0 -0 -1 -1 -1 -2 -2 -3 -2 -3 -3 -3 -3 -3 -3 -3
5 4 5 4 4 4 3 2 2 1 1 0 -0 0 1 1 0 1 1 1 2 0 -1 -1 -2 -2 -1 -1 -1 -0 -1 -1 -2 -2 -2 -3 -3 -3 -4 -4 -4 -4 -4 -4
4 4 4 4 2 1 1 1 0 0 -0 -0 -0 -1 -1 -1 0 0 -0 -0 -1 -2 -2 -1 -1 -2 -1 -1 -1 -1 -1 -1 -1 -2 -3 -3 -4 -4 -4 -4 -5 -5 -5 -4
2 1 1 1 1 0 -0 -1 -1 -1 -1 -1 -1 -2 -2 -2 -1 -1 -1 -1 -2 -2 -2 -1 -1 -1 -1 -1 -1 -1 -1 -1 -2 -2 -3 -3 -5 -5 -5 -5 -5 -5 -4 -4
-0 -1 -1 -0 -0 -0 -1 -2 -1 -2 -2 -2 -2 -2 -2 -2 -1 -1 -1 -1 -1 -1 -1 -2 -2 -1 -1 -1 -2 -2 -2 -2 -2 -2 -3 -3 -4 -5 -5 -5 -6 -6 -5 -5
-1 -1 -2 -2 -1 -1 -2 -2 -3 -2 -2 -2 -1 -1 -2 -2 -1 -2 -2 -2 -2 -2 -2 -2 -2 -1 -2 -2 -2 -2 -2 -2 -2 -2 -3 -4 -4 -4 -5 -5 -5 -5 -6 -6
-0 -1 -2 -2 -2 -2 -2 -1 -2 -2 -3 -2 -2 -1 -2 -2 -2 -2 -1 -2 -2 -2 -2 -2 -2 -2 -2 -2 -3 -3 -3 -3 -3 -3 -3 -4 -4 -4 -4 -4 -4 -5 -5 -5
-1 -1 -2 -2 -2 -2 -2 -2 -2 -2 -2 -2 -2 -2 -2 -2 -2 -2 -2 -2 -2 -2 -2 -2 -2 -2 -3 -3 -3 -4 -4 -3 -3 -3 -3 -4 -4 -4 -4 -4 -4 -4 -5 -5
-1 -1 -1 -2 -2 -2 -3 -4 -3 -3 -3 -3 -2 -2 -2 -2 -2 -2 -2 -2 -3 -3 -3 -3 -3 -3 -3 -3 -3 -4 -4 -3 -3 -3 -3 -3 -4 -4 -4 -4 -5 -5 -5 -5
-1 -1 -1 -2 -2 -2 -3 -2 -3 -3 -3 -3 -3 -2 -2 -2 -2 -3 -3 -3 -3 -3 -3 -3 -3 -3 -3 -3 -4 -4 -4 -4 -4 -4 -4 -4 -4 -4 -4 -4 -5 -5 -5 -5
-0 -1 -1 -1 -1 -2 -2 -2 -3 -3 -3 -3 -3 -3 -2 -2 -2 -3 -3 -3 -3 -3 -3 -3 -3 -4 -4 -4 -4 -4 -4 -4 -4 -5 -5 -4 -5 -5 -5 -5 -5 -5 -5 -6
-0 -2 -2 -2 -2 -2 -1 -2 -2 -3 -3 -3 -3 -3 -3 -3 -3 -3 -3 -3 -4 -4 -4 -4 -4 -4 -4 -4 -3 -4 -4 -4 -4 -4 -5 -5 -5 -5 -5 -5 -6 -6 -6 -6

GFSNGP_925_temp_207.txt.gz
Temp
17 18 18 18 18 19 18 18 18 20 20 21 16 15 15 15 14 14 14 12 12 11 10 10 10 9 10 9 9 8 7 5 3 2 1 1 0 -0 -1 -1 -1 -1 -0 -1
14 16 16 17 18 19 19 20 19 20 21 22 17 16 15 14 13 14 13 12 11 11 11 10 10 10 9 8 7 6 5 4 2 1 0 -0 -1 -1 -1 -1 -1 -1 -1 -2
13 14 14 14 15 16 18 20 20 19 21 19 15 15 14 14 14 14 13 11 11 11 11 11 10 9 8 7 6 5 4 2 1 -0 -1 -1 -1 -2 -2 -2 -2 -2 -2 -2
13 13 13 14 17 17 17 18 20 21 21 21 19 15 15 15 14 13 12 11 11 11 11 10 9 8 7 6 5 4 2 1 0 -1 -1 -2 -2 -2 -2 -2 -2 -2 -2 -2
13 14 12 14 14 16 16 17 19 18 20 18 16 15 14 14 14 13 12 11 11 11 11 9 7 7 6 4 3 2 1 0 -1 -1 -1 -2 -2 -2 -2 -2 -2 -2 -3 -3
11 14 15 16 14 16 17 15 19 19 19 15 14 12 13 12 12 11 10 11 11 10 8 8 6 6 4 3 2 1 -0 -1 -1 -1 -2 -2 -2 -2 -2 -2 -2 -2 -2 -2
12 12 12 14 13 16 13 16 17 18 18 13 14 16 16 11 10 10 10 10 9 8 7 6 5 3 2 1 0 -1 -1 -1 -2 -2 -2 -2 -2 -2 -2 -2 -2 -2 -1 -1
12 12 13 13 14 16 15 12 14 16 17 17 16 12 12 11 10 10 9 9 7 6 5 4 4 3 1 -0 -1 -1 -1 -2 -2 -2 -2 -2 -2 -2 -2 -2 -2 -2 -2 -2
13 14 12 13 13 13 13 14 13 14 13 13 9 9 10 10 10 9 9 8 5 5 2 1 1 2 -0 -1 -1 -2 -2 -1 -2 -2 -2 -3 -2 -2 -2 -2 -2 -1 -1 -1
12 11 11 13 11 12 12 12 12 12 11 11 9 9 9 9 10 9 8 7 6 4 1 -1 -0 -0 -1 -0 -1 -2 -2 -1 -2 -2 -2 -2 -2 -2 -2 -2 -2 -2 -2 -2
10 10 10 11 11 11 10 10 10 11 10 10 9 9 9 9 8 8 7 6 5 4 2 -0 -1 -0 -1 -1 -2 -2 -2 -2 -2 -2 -2 -2 -2 -2 -2 -2 -2 -2 -2 -3
10 12 11 10 10 10 9 10 10 9 9 9 10 9 9 9 8 8 7 5 4 3 2 0 0 -1 -1 -2 -2 -2 -2 -2 -2 -2 -2 -2 -2 -2 -3 -2 -2 -3 -3 -3
11 9 9 9 9 10 10 10 10 10 9 8 9 9 9 8 7 5 5 5 4 3 2 1 0 -1 -1 -2 -2 -2 -1 -1 -2 -2 -2 -2 -2 -1 -2 -3 -3 -3 -3 -4
9 9 8 9 8 8 9 8 8 8 8 8 7 8 7 6 5 6 5 4 3 2 1 1 -0 -1 -2 -2 -1 -2 -2 -2 -2 -2 -3 -3 -2 -2 -2 -2 -3 -3 -4 -4
9 9 9 8 8 7 7 9 8 7 7 5 5 5 6 5 5 4 3 2 2 2 1 1 0 -1 -2 -1 -1 -1 -2 -2 -2 -2 -3 -3 -3 -2 -2 -3 -3 -3 -4 -4
8 8 8 7 7 7 8 8 6 5 4 4 4 4 4 3 3 3 3 2 3 2 1 -0 -1 -1 -1 -1 -1 -1 -1 -2 -2 -3 -3 -3 -3 -3 -3 -3 -3 -4 -4 -4
6 6 6 6 7 7 7 6 5 4 3 3 3 2 2 2 2 2 2 2 3 2 0 -1 -1 -1 -1 -1 -1 -1 -2 -2 -3 -3 -3 -3 -3 -3 -3 -3 -3 -4 -5 -5
6 6 7 6 5 4 3 3 2 3 2 2 0 0 0 1 2 1 0 0 -0 -1 -1 -1 -1 -1 -1 -1 -1 -1 -1 -2 -3 -3 -4 -4 -4 -4 -4 -4 -4 -4 -5 -5
5 4 4 4 4 3 2 2 2 0 -0 -1 -0 -0 -0 0 0 -0 -1 -1 -1 -2 -2 -2 -2 -1 -1 -1 -2 -1 -2 -2 -3 -3 -4 -4 -4 -4 -4 -4 -5 -5 -6 -6
2 2 1 1 2 2 0 -1 -1 -1 -1 -1 -1 -1 -1 -1 -1 -1 -1 -1 -1 -1 -2 -2 -1 -1 -1 -2 -2 -2 -2 -2 -3 -4 -4 -4 -4 -5 -5 -5 -6 -6 -6 -6
2 1 0 -0 -1 -1 -1 -1 -1 -1 -2 -2 -2 -2 -1 -1 -1 -1 -1 -1 -2 -2 -2 -1 -1 -2 -2 -2 -2 -2 -2 -3 -3 -4 -5 -5 -5 -5 -5 -5 -6 -6 -6 -6
0 -1 -1 -1 -1 -1 -2 -1 -2 -2 -2 -2 -4 -3 -2 -2 -2 -2 -2 -2 -2 -2 -2 -2 -2 -2 -2 -2 -2 -3 -2 -3 -4 -4 -5 -6 -5 -6 -6 -6 -6 -6 -6 -6
-1 -1 -1 -1 -1 -2 -2 -2 -2 -2 -2 -2 -2 -3 -1 -2 -2 -1 -2 -2 -2 -2 -2 -2 -2 -2 -2 -3 -3 -3 -3 -3 -4 -4 -5 -5 -5 -5 -5 -6 -6 -6 -7 -7
-1 -1 -1 -2 -2 -2 -2 -3 -2 -2 -2 -1 -2 -2 -2 -2 -2 -2 -2 -2 -2 -2 -3 -3 -3 -3 -3 -3 -3 -4 -4 -4 -4 -5 -5 -5 -5 -5 -6 -6 -6 -6 -7 -7
-1 -1 -2 -2 -1 -2 -2 -3 -3 -3 -2 -2 -2 -2 -2 -2 -2 -3 -3 -3 -3 -3 -3 -3 -3 -3 -3 -4 -4 -4 -4 -4 -4 -5 -5 -5 -5 -6 -6 -6 -6 -7 -7 -7
-1 -1 -1 -1 -1 -2 -3 -3 -3 -3 -3 -2 -2 -3 -2 -2 -2 -3 -3 -3 -3 -3 -3 -3 -4 -4 -4 -4 -4 -4 -4 -4 -5 -5 -5 -6 -6 -5 -5 -5 -5 -6 -6 -7
-1 -1 -1 -1 -2 -2 -3 -3 -3 -3 -3 -2 -2 -3 -3 -3 -3 -3 -3 -4 -3 -4 -4 -4 -4 -4 -4 -4 -4 -5 -5 -5 -5 -6 -6 -6 -7 -7 -6 -6 -6 -6 -6 -7

GFSNGP_925_temp_210.txt.gz
Temp
17 19 21 20 20 21 21 20 19 21 23 24 25 25 25 23 21 20 19 19 19 18 17 16 15 13 13 12 11 10 9 9 7 6 5 4 3 2 1 1 0 -0 -0 -1
14 18 19 20 21 21 21 22 22 22 22 25 25 26 24 22 21 19 18 18 18 17 17 16 14 13 13 11 10 9 8 6 6 5 4 3 1 1 -0 0 -0 -1 -1 -1
12 15 16 15 17 20 21 22 22 21 23 24 24 24 23 21 20 19 18 18 18 17 16 14 14 13 12 11 9 9 7 5 4 2 0 -0 -0 -0 -1 -1 -1 -1 -1 -2
10 12 13 15 19 20 20 21 22 23 24 24 24 25 23 21 20 20 20 19 17 16 14 13 13 13 12 10 9 8 7 6 3 2 -0 -1 -1 -1 -1 -2 -2 -2 -2 -2
10 13 15 17 18 17 18 19 21 22 23 23 24 24 24 22 22 20 19 18 15 13 13 13 13 12 11 10 8 8 7 5 3 1 -0 -1 -1 -2 -2 -2 -2 -2 -1 -2
10 11 14 19 21 21 19 16 20 21 21 22 22 20 21 20 19 17 15 15 13 13 13 12 12 11 10 9 8 8 5 3 1 0 0 -0 -1 -2 -2 -2 -2 -1 -1 -1
9 10 16 21 20 19 14 17 20 19 21 20 19 21 17 16 15 14 13 12 12 11 13 12 10 9 8 7 7 4 2 1 0 0 -0 -1 -2 -2 -2 -2 -1 -1 -1 -1
10 11 13 18 18 17 18 17 20 19 19 19 20 19 16 14 13 12 9 9 9 9 10 9 7 8 6 3 2 1 -0 -0 -1 -1 -1 -2 -2 -2 -1 -1 -1 -0 -0 1
10 12 12 17 19 18 14 17 17 19 19 19 19 19 16 15 13 11 10 9 9 8 5 5 5 4 2 1 1 -1 -1 -1 -1 -2 -2 -2 -2 -1 -1 -1 -1 0 0 0
10 12 11 11 15 14 14 15 16 15 17 16 17 16 16 15 14 12 11 10 9 6 5 2 4 3 2 0 -0 -1 -1 -1 -1 -2 -2 -2 -2 -1 -1 -1 -1 -0 -0 -1
12 13 13 12 13 12 13 14 14 14 15 16 15 14 14 13 12 12 11 10 9 9 6 3 2 0 -0 -1 -1 -1 -1 -1 -1 -2 -2 -2 -2 -2 -2 -2 -2 -1 -2 -2
14 15 13 13 13 13 13 14 13 13 13 13 14 13 13 12 12 12 10 10 10 9 6 3 3 1 -1 -1 -2 -1 -1 -1 -1 -1 -2 -1 -1 -2 -3 -2 -3 -2 -3 -3
14 13 14 14 14 14 14 13 13 13 13 13 13 13 12 11 12 10 10 10 9 8 5 4 4 2 0 0 0 0 0 -1 -1 -2 -2 -1 -1 -1 -2 -3 -3 -3 -4 -4
13 12 11 12 13 13 13 13 12 13 13 13 13 13 12 11 10 10 9 9 8 6 5 4 3 1 -0 0 1 1 1 -0 -0 -1 -2 -2 -1 -1 -1 -2 -2 -3 -4 -4
12 13 14 13 12 12 11 12 11 11 11 11 12 11 10 10 9 10 9 7 6 6 5 4 4 0 -1 -0 1 1 1 0 -1 -1 -2 -2 -1 -1 -2 -2 -2 -3 -3 -3
12 12 12 12 12 12 13 13 11 10 10 10 10 10 10 9 8 7 6 6 6 6 5 4 2 0 -0 1 1 -0 -1 -1 -1 -2 -2 -2 -1 -1 -2 -2 -2 -3 -2 -3
11 11 11 10 11 12 12 11 10 10 9 9 8 8 8 7 7 7 6 5 4 4 3 2 0 -0 -0 -0 0 -0 -1 -1 -2 -2 -2 -1 -1 -1 -2 -2 -2 -3 -4 -5
10 11 11 10 10 10 8 6 6 8 7 7 4 3 3 4 5 4 3 2 0 0 0 -1 -1 -0 -0 -1 -0 -0 -1 -2 -1 -2 -2 -2 -2 -1 -2 -2 -3 -3 -4 -5
8 7 7 7 8 8 7 7 6 3 1 1 1 1 1 1 1 0 0 -0 -0 -0 -1 -1 -1 -1 -1 -1 -1 -1 -1 -2 -2 -2 -3 -3 -2 -2 -3 -3 -3 -4 -4 -5
6 5 5 5 5 5 3 1 1 0 0 0 0 1 0 0 -0 0 0 1 1 1 -2 -1 -1 -0 -1 -2 -1 -1 -1 -2 -2 -3 -3 -3 -3 -3 -3 -4 -4 -5 -5 -5
5 4 2 1 0 0 0 -0 -0 -0 -1 -0 0 1 0 -1 -0 -0 0 1 -2 -1 -1 -2 -0 -1 -1 -2 -1 -1 -1 -2 -2 -3 -3 -3 -4 -4 -4 -4 -5 -5 -5 -5
2 1 0 0 0 -0 -0 -1 -1 -1 -1 -1 -1 -1 -1 -1 -1 -1 -0 0 -2 -2 -2 -1 -0 -1 -1 -2 -1 -2 -2 -2 -2 -3 -4 -4 -4 -4 -4 -4 -5 -5 -5 -6
1 0 0 0 0 -0 -1 -1 -1 -1 -1 -2 -1 -1 -1 -1 -1 -0 -0 -1 -2 -2 -1 -1 -2 -2 -2 -2 -2 -2 -2 -3 -3 -3 -4 -4 -4 -5 -5 -5 -5 -5 -6 -6
1 1 -0 -1 -1 0 -0 -1 -1 -1 -1 -1 -1 -1 -1 -1 -1 -1 -1 -2 -2 -2 -2 -2 -2 -2 -3 -2 -2 -3 -3 -3 -3 -4 -4 -4 -4 -4 -5 -5 -5 -5 -6 -6
1 0 0 1 1 -0 -1 -1 -1 -1 -1 -1 -1 -1 -1 -0 -0 -1 -2 -2 -3 -2 -2 -3 -3 -3 -3 -3 -3 -3 -3 -4 -4 -4 -4 -4 -4 -5 -5 -5 -5 -6 -6 -6
2 1 0 0 -0 -1 -1 -1 -1 -1 -0 -1 -1 -2 -1 -1 -2 -2 -2 -2 -2 -3 -3 -3 -3 -3 -3 -4 -4 -4 -4 -4 -4 -4 -4 -4 -4 -5 -5 -6 -6 -6 -6 -6
1 0 0 0 -1 -1 -2 -2 -1 -1 -1 -1 -1 -2 -2 -2 -2 -2 -3 -3 -3 -3 -3 -3 -4 -4 -4 -4 -4 -4 -4 -4 -4 -5 -5 -5 -5 -5 -6 -6 -6 -6 -7 -8

GFSNGP_925_temp_216.txt.gz
Temp
10 11 12 13 15 17 21 20 15 16 20 22 24 25 26 27 27 27 28 27 26 23 21 20 19 18 17 17 15 15 13 12 11 11 9 8 7 6 5 4 4 3 3 2
8 11 12 10 12 14 16 19 22 22 20 23 25 25 26 26 26 27 27 27 25 23 21 20 19 18 17 16 15 14 13 11 10 9 8 7 6 5 4 4 3 2 1 0
8 11 10 9 13 15 16 19 21 22 23 23 21 25 25 25 26 26 27 26 25 23 22 20 19 18 17 15 14 13 11 10 9 7 6 5 5 4 4 3 1 0 -0 -0
8 9 8 12 16 16 17 20 21 22 25 25 25 26 26 27 26 26 27 26 25 23 22 21 19 18 17 15 13 12 8 8 7 6 5 4 3 5 4 1 -1 -1 -1 -1
8 9 10 12 14 15 17 18 22 21 22 23 24 24 24 25 26 26 25 25 23 23 22 21 19 17 16 14 12 9 7 6 4 4 3 1 2 3 1 -1 -1 -1 -1 -1
9 8 9 13 15 17 18 13 17 20 22 23 24 21 23 25 25 24 23 21 23 23 22 20 18 16 15 13 12 9 7 7 4 3 2 0 2 1 -0 -1 -1 -1 -1 -1
8 8 11 15 16 17 13 14 17 16 19 21 21 23 24 24 24 24 22 20 21 21 19 19 17 15 13 12 11 10 8 6 5 4 2 2 0 -0 -1 -1 -1 -0 0 1
8 8 9 15 16 15 16 14 14 14 17 14 17 22 22 22 22 22 22 20 19 18 17 16 15 14 12 6 7 6 6 4 3 3 2 0 -0 -1 -1 -1 -0 0 1 1
9 11 14 16 16 15 14 13 14 13 13 15 16 20 21 21 20 19 18 19 17 14 13 13 12 8 4 2 6 5 3 2 2 2 0 -1 -1 -1 -1 -0 -0 1 1 1
12 12 13 14 17 16 16 14 15 13 14 15 16 17 19 20 17 15 13 12 12 10 9 7 5 4 2 2 3 3 1 1 0 -1 -1 -1 -1 -1 -0 -0 0 0 0 -0
9 13 12 11 16 16 16 16 14 14 15 15 16 16 18 17 15 13 11 9 8 7 5 3 2 1 2 3 3 1 -0 -1 -1 -1 -1 -1 -1 -1 -1 -1 -0 -0 -1 -1
9 12 13 13 16 17 16 15 13 12 12 14 16 17 16 15 13 11 8 7 7 5 4 2 1 1 0 1 2 0 -1 -1 -1 -1 -1 -1 -2 -2 -2 -2 -2 -2 -2 -2
10 13 12 13 14 15 14 13 12 10 10 11 15 15 15 12 10 7 7 7 5 4 2 2 1 0 0 0 0 1 -0 -1 -1 -1 -1 -1 -2 -2 -3 -4 -4 -4 -3 -3
10 11 10 12 13 14 15 14 10 10 9 11 15 14 14 12 9 8 7 6 4 3 3 2 1 1 0 1 1 1 0 -0 -1 -1 -1 -1 -1 -2 -2 -3 -3 -4 -3 -3
12 11 10 10 11 13 15 14 11 10 10 10 10 11 11 11 10 9 7 6 5 4 3 3 2 2 2 2 2 1 1 -0 -0 -1 -1 -1 -1 -1 -1 -1 -2 -3 -3 -3
13 10 13 12 13 15 15 14 14 13 10 10 10 10 11 11 10 9 7 6 5 4 4 3 3 3 3 3 2 1 1 0 -0 -1 -1 -1 -1 -1 -1 -2 -2 -2 -2 -2
13 13 14 14 14 14 14 14 13 13 12 12 11 12 11 10 9 8 8 7 6 5 3 3 3 3 3 2 1 0 -0 -1 -1 -1 -1 -1 -1 -1 -1 -2 -2 -3 -3 -3
11 12 12 13 14 13 11 10 10 11 10 10 6 6 5 6 7 6 5 4 3 2 2 2 2 2 2 1 1 -0 -1 -1 -1 -1 -1 -1 -1 -1 -2 -2 -3 -3 -4 -3
9 10 10 12 11 10 8 5 4 3 3 3 3 2 2 2 2 2 1 1 1 0 -0 0 1 1 1 1 1 0 -0 -1 -1 -1 -1 -1 -2 -2 -2 -3 -3 -4 -4 -4
4 3 4 5 5 3 2 2 2 1 2 2 2 1 1 1 1 1 1 1 1 -0 -1 0 1 1 1 1 0 0 -0 -1 -1 -2 -2 -2 -2 -2 -3 -3 -3 -3 -4 -4
2 1 1 1 1 1 1 1 1 1 1 1 1 1 1 0 1 1 1 0 -1 -1 0 1 1 0 0 0 -0 -0 -0 -2 -2 -2 -2 -2 -3 -3 -3 -3 -4 -4 -4 -5
2 1 1 0 1 0 0 0 1 1 1 0 0 1 1 1 1 1 0 0 -0 0 0 0 0 0 -0 0 -0 -0 -1 -2 -2 -2 -2 -3 -3 -3 -4 -4 -4 -4 -4 -4
2 1 1 1 0 0 -0 -0 -0 0 0 0 0 1 1 1 1 0 -0 -0 -1 -0 0 0 0 0 -0 -0 -0 -1 -1 -2 -2 -2 -3 -3 -3 -3 -4 -4 -4 -4 -4 -5
2 2 1 0 1 1 1 0 -0 -0 -0 -0 0 1 1 1 1 0 -1 -1 -0 -0 0 -0 -0 -1 -1 -1 -1 -2 -2 -2 -2 -3 -3 -3 -3 -3 -4 -4 -4 -5 -5 -5
2 2 2 3 2 1 1 1 0 0 -0 -0 -0 0 0 0 0 -1 -1 -1 -1 -1 -1 -1 -1 -1 -1 -1 -2 -2 -2 -2 -3 -3 -3 -3 -3 -4 -4 -4 -5 -5 -5 -5
3 3 3 3 2 1 1 1 1 0 0 -0 -0 -0 -0 -0 -1 -1 -1 -1 -1 -2 -3 -2 -2 -2 -2 -2 -2 -2 -2 -3 -3 -3 -3 -4 -4 -4 -4 -4 -5 -5 -6 -6
3 2 2 1 1 1 1 1 1 -0 -0 -0 -1 -1 -1 -1 -2 -2 -2 -2 -2 -2 -3 -3 -3 -2 -2 -3 -3 -3 -3 -3 -3 -3 -4 -4 -4 -4 -4 -4 -5 -5 -6 -6

GFSNGP_925_temp_222.txt.gz
Temp
7 8 9 9 10 10 10 9 9 11 11 12 14 16 18 18 19 18 19 19 18 17 15 14 14 14 14 13 12 12 12 11 10 10 11 12 12 11 10 9 8 7 6 5
6 9 8 8 9 9 9 10 10 10 11 14 15 16 17 18 19 19 20 19 19 18 15 14 15 14 14 12 12 12 11 10 9 10 11 10 10 9 8 7 6 5 4 4
7 8 9 7 9 9 10 11 12 11 13 14 14 15 16 16 18 19 19 20 20 18 16 15 16 14 13 12 12 11 10 9 9 9 8 9 8 7 6 6 5 4 3 2
6 7 6 9 11 11 11 12 12 13 14 14 14 15 15 15 15 17 19 19 20 21 18 16 16 15 14 12 11 10 8 7 7 7 8 8 7 6 5 4 3 2 1 1
6 5 7 9 10 10 11 11 12 13 13 13 14 15 14 15 16 16 17 18 19 20 19 17 16 15 13 11 11 9 7 6 6 7 6 6 5 4 3 3 2 1 0 -0
3 6 5 9 11 12 12 8 12 13 13 12 13 11 14 15 13 13 14 14 16 17 19 16 15 14 12 11 9 8 7 7 6 6 6 4 4 3 3 2 1 -0 -0 -0
5 6 7 10 11 12 8 8 12 12 12 13 12 13 14 15 12 12 12 14 16 16 15 15 14 13 12 10 9 8 7 5 5 5 5 6 4 3 1 0 -0 -1 -1 -1
2 5 6 11 11 9 10 11 11 12 12 12 13 12 12 12 11 12 12 13 14 12 13 14 13 12 11 8 8 6 5 3 2 2 2 1 1 -0 -0 -0 -1 -1 -1 -1
7 5 8 10 9 10 10 10 11 11 11 12 11 12 12 12 11 11 10 9 12 12 11 13 12 12 8 6 5 3 3 1 1 2 1 1 0 -1 -1 -1 -1 -0 -0 -1
8 9 9 10 10 11 10 8 8 9 10 12 12 11 11 11 11 10 8 7 6 7 6 4 9 9 4 3 2 3 1 0 -1 -1 -1 -1 -0 -0 -1 -0 -0 -1 -1 -1
8 9 9 10 10 10 9 10 9 9 9 11 10 12 12 11 10 9 7 6 5 4 3 2 2 2 2 2 2 1 -0 -0 -1 -1 -1 -1 -1 -0 0 -0 0 -0 -0 -1
7 9 8 9 10 10 10 9 9 9 9 9 9 11 11 9 9 7 6 5 4 3 3 2 1 1 1 1 1 0 -0 -0 -0 -0 -0 -1 -1 -1 -1 0 0 1 0 -0
8 9 9 9 10 10 10 9 9 9 8 9 10 10 9 9 7 6 5 4 3 3 2 2 1 1 1 1 2 1 0 0 -0 -1 -1 -2 -2 -2 -3 -2 -1 -1 -1 -1
8 8 8 9 9 10 10 9 9 9 9 8 8 8 8 7 5 5 4 4 3 3 3 2 2 2 1 2 1 1 0 0 -1 -1 -2 -2 -3 -3 -3 -4 -4 -4 -3 -3
9 9 9 9 8 9 9 9 8 8 8 7 7 7 6 6 6 5 4 3 3 3 3 2 2 1 1 2 2 1 -0 -1 -1 -2 -2 -2 -3 -3 -3 -4 -4 -4 -3 -3
9 9 8 8 8 9 9 9 8 8 7 6 6 6 6 5 4 4 3 3 3 2 2 1 1 1 1 1 1 -0 -1 -1 -1 -2 -2 -3 -3 -3 -4 -4 -4 -4 -3 -3
7 7 7 7 8 8 8 8 8 8 7 6 6 5 5 4 4 3 3 2 2 1 1 1 1 1 2 2 1 -1 -1 -1 -1 -1 -2 -2 -3 -3 -3 -4 -4 -3 -3 -3
5 5 5 5 6 8 7 7 7 7 6 6 4 3 1 1 1 0 -0 -0 0 1 1 1 1 1 0 0 -0 -1 -1 -1 -1 -1 -1 -2 -2 -2 -3 -3 -3 -3 -3 -4
3 3 3 3 3 3 4 4 3 3 3 3 3 2 2 1 0 -0 -0 -0 0 0 -1 0 1 1 0 0 -0 -1 -1 -1 -1 -1 -1 -2 -2 -3 -3 -3 -3 -4 -4 -4
2 2 2 2 1 2 2 1 1 1 2 1 1 1 1 1 1 1 1 0 0 -0 -0 0 1 0 0 0 0 -1 -2 -1 -1 -2 -2 -2 -3 -3 -3 -4 -4 -4 -4 -5
1 1 0 0 1 0 0 1 1 1 1 2 1 1 1 0 0 0 0 -0 -1 -0 -0 1 0 -0 -0 -0 -1 -1 -2 -2 -2 -2 -2 -3 -3 -3 -4 -4 -4 -4 -5 -5
1 1 0 0 0 0 -0 0 1 1 1 1 0 0 0 -0 -0 -1 -0 -0 -0 0 0 -0 0 -0 -0 -0 -1 -1 -2 -2 -2 -2 -2 -3 -3 -4 -4 -4 -4 -4 -5 -5
0 0 -0 -0 -0 -0 -0 -0 -0 0 0 1 1 0 0 -0 -0 -0 -1 -1 -0 1 1 1 1 0 -0 -0 -1 -1 -2 -2 -2 -2 -3 -3 -4 -4 -4 -4 -4 -5 -5 -5
0 -0 -0 -0 -0 0 0 -0 -0 -0 -0 0 -0 -0 -0 -0 -1 -0 -1 -1 0 1 1 0 0 -0 -1 -1 -1 -2 -1 -2 -2 -3 -3 -3 -3 -4 -4 -4 -4 -5 -5 -5
-0 0 -0 -0 -0 -0 -0 -1 -0 -0 -0 -0 -0 -0 -0 -0 -1 -1 -1 -0 0 0 -0 -0 -0 -1 -1 -1 -1 -2 -2 -2 -2 -3 -3 -3 -4 -4 -4 -4 -4 -5 -5 -5
1 1 -0 -0 -0 -0 -0 -0 -1 -1 -0 -1 -1 -1 -1 -1 -1 -1 -1 -0 -0 -0 -1 -1 -1 -1 -1 -2 -1 -1 -2 -2 -3 -3 -3 -3 -4 -4 -4 -4 -5 -5 -5 -5
0 0 -0 -1 -0 -0 -0 -0 -1 -1 -1 -1 -1 -1 -1 -1 -1 -1 -1 -1 -1 -1 -2 -1 -1 -1 -1 -2 -2 -2 -2 -2 -3 -3 -3 -3 -4 -4 -4 -4 -5 -5 -5 -5